| time (UTC) | temp F | wind direction | speed knots | gust knots | rain 1hr in | rain 24hr in | rain mn in | humidity % | barometer mb |
| 20260831193021 | 71 | 109 | 3.5 | 7.8 | 0.00 | 0.26 | 0.01 | 68 | 1014.5 |
| 20260831191524 | 71 | 136 | 0.0 | 2.6 | 0.00 | 0.26 | 0.01 | 70 | 1015.1 |
| 20260831190021 | 70 | 136 | 0.0 | 2.6 | 0.00 | 0.26 | 0.01 | 68 | 1015.5 |
| 20260831184519 | 69 | 142 | 0.0 | 3.5 | 0.00 | 0.26 | 0.01 | 71 | 1015.8 |
| 20260831183012 | 69 | 170 | 0.0 | 2.6 | 0.00 | 0.26 | 0.01 | 71 | 1016.2 |
| 20260831181511 | 68 | 170 | 0.0 | 3.5 | 0.00 | 0.26 | 0.01 | 71 | 1016.3 |
| 20260831180006 | 67 | 175 | 0.0 | 0.9 | 0.00 | 0.26 | 0.01 | 75 | 1016.3 |
| 20260831174505 | 67 | 175 | 0.0 | 0.9 | 0.00 | 0.26 | 0.01 | 75 | 1016.3 |
| 20260831173003 | 66 | 175 | 0.0 | 0.0 | 0.00 | 0.26 | 0.01 | 78 | 1016.2 |
| 20260831171559 | 66 | 175 | 0.0 | 1.7 | 0.00 | 0.26 | 0.01 | 81 | 1015.9 |
| 20260831170056 | 65 | 175 | 0.9 | 4.3 | 0.00 | 0.26 | 0.01 | 81 | 1015.6 |
| 20260831164604 | 64 | 93 | 0.0 | 2.6 | 0.00 | 0.26 | 0.01 | 83 | 1015.4 |
| 20260831163050 | 63 | 88 | 0.0 | 2.6 | 0.00 | 0.26 | 0.01 | 84 | 1015.1 |
| 20260831161549 | 62 | 85 | 0.0 | 1.7 | 0.00 | 0.26 | 0.01 | 86 | 1014.8 |
| 20260831160047 | 62 | 84 | 0.0 | 1.7 | 0.00 | 0.26 | 0.01 | 88 | 1014.6 |
| 20260831154545 | 61 | 78 | 0.0 | 0.9 | 0.00 | 0.30 | 0.01 | 90 | 1014.3 |
| 20260831153043 | 60 | 77 | 0.0 | 0.0 | 0.00 | 0.30 | 0.01 | 91 | 1014.1 |
| 20260831151540 | 60 | 77 | 0.0 | 0.0 | 0.00 | 0.30 | 0.01 | 91 | 1013.7 |
| 20260831150033 | 59 | 77 | 0.0 | 0.9 | 0.00 | 0.30 | 0.01 | 91 | 1013.4 |
| 20260831144533 | 59 | 77 | 0.9 | 2.6 | 0.00 | 0.30 | 0.01 | 91 | 1013.2 |
| 20260831141528 | 59 | 78 | 0.0 | 1.7 | 0.00 | 0.30 | 0.01 | 91 | 1013.1 |
| 20260831140105 | 59 | 79 | 0.0 | 0.9 | 0.00 | 0.30 | 0.01 | 91 | 1013.1 |
| 20260831134514 | 59 | 79 | 0.0 | 0.0 | 0.00 | 0.30 | 0.01 | 91 | 1012.9 |
| 20260831133029 | 59 | 79 | 0.0 | 0.9 | 0.00 | 0.30 | 0.01 | 91 | 1012.9 |
| 20260831131520 | 59 | 79 | 0.0 | 1.7 | 0.00 | 0.30 | 0.01 | 91 | 1012.6 |
| 20260831130011 | 59 | 79 | 0.0 | 0.0 | 0.01 | 0.30 | 0.01 | 91 | 1012.2 |
| 20260831124505 | 59 | 79 | 0.0 | 1.7 | 0.01 | 0.46 | 0.01 | 91 | 1012.0 |
| 20260831123004 | 58 | 51 | 0.0 | 0.0 | 0.01 | 0.46 | 0.01 | 91 | 1011.9 |
| 20260831121504 | 58 | 51 | 0.0 | 0.9 | 0.01 | 0.46 | 0.01 | 91 | 1011.7 |
| 20260831120003 | 58 | 50 | 0.0 | 0.9 | 0.00 | 0.45 | 0.00 | 90 | 1011.7 |
| 20260831114502 | 58 | 50 | 0.0 | 0.0 | 0.00 | 0.45 | 0.00 | 90 | 1011.6 |
| 20260831113000 | 58 | 50 | 0.0 | 0.0 | 0.00 | 0.45 | 0.00 | 90 | 1011.7 |
| 20260831111600 | 58 | 50 | 0.0 | 0.0 | 0.00 | 0.45 | 0.00 | 90 | 1011.6 |
| 20260831110058 | 59 | 50 | 0.0 | 0.9 | 0.00 | 0.45 | 0.00 | 90 | 1011.5 |
| 20260831104557 | 59 | 50 | 0.0 | 0.9 | 0.00 | 0.45 | 0.00 | 90 | 1011.7 |
| 20260831103103 | 59 | 50 | 0.0 | 0.0 | 0.00 | 0.45 | 0.00 | 89 | 1011.7 |
| 20260831101554 | 60 | 50 | 0.0 | 0.9 | 0.00 | 0.45 | 0.00 | 89 | 1011.6 |
| 20260831100052 | 60 | 50 | 0.0 | 0.0 | 0.00 | 0.45 | 0.00 | 89 | 1011.5 |
| 20260831094557 | 60 | 50 | 0.0 | 0.0 | 0.00 | 0.45 | 0.00 | 89 | 1011.4 |
| 20260831093050 | 60 | 50 | 0.0 | 0.9 | 0.00 | 0.45 | 0.00 | 89 | 1011.4 |
| 20260831091550 | 60 | 50 | 0.0 | 1.7 | 0.00 | 0.45 | 0.00 | 89 | 1011.4 |
| 20260831090056 | 60 | 47 | 0.0 | 0.9 | 0.00 | 0.45 | 0.00 | 89 | 1011.2 |
| 20260831084547 | 60 | 47 | 0.0 | 0.9 | 0.00 | 0.45 | 0.00 | 89 | 1011.0 |
| 20260831083049 | 60 | 47 | 0.0 | 0.9 | 0.00 | 0.45 | 0.00 | 88 | 1011.2 |
| 20260831081544 | 60 | 47 | 0.0 | 0.0 | 0.00 | 0.45 | 0.00 | 87 | 1011.0 |
| 20260831080042 | 60 | 47 | 0.0 | 2.6 | 0.00 | 0.45 | 0.00 | 87 | 1011.0 |
| 20260831074540 | 61 | 47 | 0.9 | 3.5 | 0.00 | 0.45 | 0.00 | 86 | 1010.7 |
| 20260831073038 | 61 | 51 | 1.7 | 3.5 | 0.00 | 0.45 | 0.00 | 85 | 1010.7 |
| 20260831071543 | 62 | 38 | 0.0 | 2.6 | 0.00 | 0.45 | 0.00 | 84 | 1010.8 |
| 20260831070034 | 62 | 38 | 0.0 | 0.0 | 0.00 | 0.45 | 0.00 | 84 | 1010.8 |
| 20260831064533 | 62 | 38 | 0.0 | 0.0 | 0.00 | 0.45 | 0.00 | 84 | 1010.9 |
| 20260831063031 | 62 | 38 | 0.0 | 0.0 | 0.00 | 0.45 | 0.00 | 83 | 1010.9 |
| 20260831061532 | 62 | 37 | 0.0 | 0.9 | 0.00 | 0.45 | 0.00 | 83 | 1010.8 |
| 20260831060058 | 62 | 29 | 0.0 | 0.0 | 0.00 | 0.45 | 0.00 | 82 | 1010.8 |
| 20260831054558 | 63 | 28 | 0.0 | 0.0 | 0.00 | 0.45 | 0.45 | 82 | 1010.8 |
| 20260831053057 | 63 | 28 | 0.0 | 0.9 | 0.00 | 0.45 | 0.45 | 83 | 1010.4 |
| 20260831051601 | 62 | 29 | 0.0 | 0.9 | 0.00 | 0.45 | 0.45 | 83 | 1010.5 |
| 20260831050055 | 63 | 29 | 0.0 | 0.9 | 0.00 | 0.45 | 0.45 | 83 | 1010.4 |
| 20260831044606 | 63 | 29 | 0.0 | 0.9 | 0.00 | 0.45 | 0.45 | 82 | 1010.5 |
| 20260831043052 | 63 | 29 | 0.9 | 3.5 | 0.00 | 0.45 | 0.45 | 82 | 1010.5 |
| 20260831041553 | 63 | 348 | 3.5 | 5.2 | 0.00 | 0.45 | 0.45 | 81 | 1010.6 |
| 20260831040052 | 64 | 53 | 0.0 | 0.9 | 0.00 | 0.45 | 0.45 | 79 | 1010.5 |
| 20260831034551 | 64 | 53 | 0.0 | 0.9 | 0.00 | 0.45 | 0.45 | 78 | 1010.5 |
| 20260831033048 | 65 | 53 | 0.0 | 0.9 | 0.00 | 0.45 | 0.45 | 78 | 1010.1 |
| 20260831031546 | 65 | 53 | 0.0 | 1.7 | 0.00 | 0.45 | 0.45 | 78 | 1009.9 |
| 20260831030045 | 65 | 53 | 0.0 | 1.7 | 0.00 | 0.45 | 0.45 | 76 | 1009.4 |
| 20260831024545 | 65 | 53 | 2.6 | 5.2 | 0.00 | 0.45 | 0.45 | 75 | 1008.9 |
| 20260831023044 | 65 | 30 | 3.5 | 5.2 | 0.00 | 0.45 | 0.45 | 76 | 1008.8 |
| 20260831021513 | 65 | 51 | 0.9 | 4.3 | 0.00 | 0.45 | 0.45 | 80 | 1008.9 |
| 20260831020012 | 65 | 319 | 0.0 | 0.0 | 0.00 | 0.45 | 0.45 | 80 | 1008.4 |
| 20260831013004 | 65 | 320 | 0.0 | 1.7 | 0.00 | 0.45 | 0.45 | 79 | 1007.9 |
| 20260831011505 | 65 | 318 | 2.6 | 4.3 | 0.00 | 0.45 | 0.45 | 79 | 1008.0 |
| 20260831010002 | 66 | 323 | 1.7 | 5.2 | 0.00 | 0.45 | 0.45 | 77 | 1008.5 |
| 20260831004502 | 67 | 19 | 2.6 | 7.8 | 0.00 | 0.45 | 0.45 | 75 | 1008.7 |
| 20260831003006 | 68 | 11 | 12.2 | 17.4 | 0.00 | 0.45 | 0.45 | 69 | 1009.7 |
| 20260831001601 | 68 | 323 | 0.0 | 1.7 | 0.00 | 0.45 | 0.45 | 75 | 1010.0 |
| 20260831000100 | 68 | 17 | 2.6 | 7.8 | 0.00 | 0.45 | 0.45 | 74 | 1008.7 |
| 20260830234559 | 69 | 341 | 4.3 | 7.8 | 0.00 | 0.45 | 0.45 | 73 | 1008.2 |
| 20260830233105 | 69 | 49 | 7.0 | 9.6 | 0.01 | 0.45 | 0.45 | 73 | 1007.8 |
| 20260830231559 | 68 | 197 | 0.0 | 1.7 | 0.01 | 0.45 | 0.45 | 78 | 1008.2 |
| 20260830230057 | 68 | 77 | 0.0 | 0.9 | 0.01 | 0.45 | 0.45 | 82 | 1007.7 |
| 20260830224558 | 68 | 38 | 0.0 | 0.9 | 0.03 | 0.46 | 0.45 | 81 | 1007.4 |
| 20260830223110 | 68 | 42 | 2.6 | 10.4 | 0.24 | 0.45 | 0.44 | 77 | 1007.2 |
| 20260830221556 | 68 | 69 | 4.3 | 13.9 | 0.24 | 0.45 | 0.44 | 78 | 1007.3 |
| 20260830220056 | 67 | 60 | 7.0 | 10.4 | 0.24 | 0.45 | 0.44 | 80 | 1007.5 |
| 20260830214615 | 67 | 22 | 0.9 | 21.7 | 0.22 | 0.44 | 0.42 | 77 | 1008.9 |
| 20260830213054 | 74 | 290 | 4.3 | 10.4 | 0.00 | 0.22 | 0.20 | 58 | 1008.6 |
| 20260830211554 | 75 | 5 | 7.8 | 13.0 | 0.00 | 0.22 | 0.20 | 54 | 1007.1 |
| 20260830210100 | 77 | 344 | 7.8 | 11.3 | 0.00 | 0.22 | 0.20 | 51 | 1007.2 |
| 20260830204559 | 78 | 347 | 7.0 | 11.3 | 0.00 | 0.22 | 0.20 | 50 | 1007.0 |
| 20260830203050 | 79 | 317 | 6.1 | 11.3 | 0.00 | 0.22 | 0.20 | 50 | 1007.2 |
| 20260830201552 | 78 | 21 | 5.2 | 9.6 | 0.00 | 0.22 | 0.20 | 49 | 1007.6 |
| 20260830200048 | 78 | 34 | 7.8 | 10.4 | 0.00 | 0.22 | 0.20 | 49 | 1007.6 |
| 20260830194542 | 77 | 327 | 6.1 | 10.4 | 0.00 | 0.22 | 0.20 | 53 | 1007.9 |